Regional Weather Roundup
Issued by NWS Kansas City/Pleasant Hill, MO

Home | Current Version | Previous Version | Text Only | Print | Product List | Glossary On
Versions: 1 2 3 4 5 6 7 8 9 10 11 12 13 14 15 16 17 18 19 20 21 22 23 24 25 26 27 28 29 30 31 32 33 34 35 36 37 38 39 40 41 42 43 44 45 46 47 48 49 50
000
ASUS43 KEAX 220310
RWREAX

WEATHER ROUNDUP FOR EASTERN KANSAS AND NORTHWEST MISSOURI
NATIONAL WEATHER SERVICE KANSAS CITY/PLEASANT HILL MO
1000 PM CDT FRI JUL 21 2017

KSZ040-057-103>105-MOZ028-029-037-043-220400-
...KANSAS CITY METROPOLITAN AREA...

CITY           SKY/WX    TMP DP  RH WIND       PRES   REMARKS
K.C. INTL      PTCLDY    87  74  64 S16       29.83R HX  95
K.C. DOWNTOWN  CLEAR     90  74  59 S16G24    29.82R HX  99
LEES SUMMIT    CLEAR     89  74  60 S14G24    29.85R HX  98
OLATHE - IXD   CLEAR     86  73  65 S14       29.85R HX  93
OLATHE - OJC   CLEAR     85  74  69 S12G21    29.85R HX  92
LAWRENCE       CLEAR     87  73  62 SE10      29.82R HX  94

$$

MOZ001>008-011>017-020>025-030>033-038>040-044>046-053-054-220400-
...NORTHERN AND CENTRAL MISSOURI...

CITY           SKY/WX    TMP DP  RH WIND       PRES   REMARKS
ST. JOSEPH     CLEAR     87  75  67 S12       29.79R HX  96
MOSBY          CLEAR     88  72  58 S7        29.83R HX  94
WARRENSBURG    CLEAR     82  70  65 S8        29.86R
WHITEMAN AFB   CLEAR     84  72  67 S12       29.86R
CLINTON        CLEAR     82  72  69 S8        29.89R
SEDALIA        CLEAR     85  72  65 S9        29.89R HX  91
WARSAW         NOT AVBL
CHILLICOTHE      N/A     87  76  69 S8        29.83R HX  97
KIRKSVILLE     CLEAR     84  74  71 S9        29.84R HX  91

$$

MOZ041-047>049-056>058-063>065-088>090-097-220400-
...EASTERN AND SOUTHERN MISSOURI...

CITY           SKY/WX    TMP DP  RH WIND       PRES   REMARKS
ST. LOUIS INTL PTCLDY    95  70  44 S10       29.88S HX 101
SPIRIT OF STL  CLEAR     89  73  59 S7        29.86S HX  97
COLUMBIA       CLEAR     83  70  64 SW9       29.89R
JEFFERSON CITY CLEAR     89  71  55 S5        29.87R HX  95
ROLLA          PTCLDY    83  71  67 S9        29.93R
OSAGE BEACH    CLEAR     87  69  54 SW6       29.92R HX  91
SPRINGFIELD    CLEAR     82  71  69 S9        29.95R
BRANSON        CLEAR     82  72  69 S3        30.00R
JOPLIN         CLEAR     86  72  62 S10       29.93R HX  92
WEST PLAINS    CLEAR     85  72  65 S6        30.00R HX  91

$$

IAZ060-094-KSZ022-034>040-054-083-096-NEZ052-066-093-220400-
...KANSAS...SOUTHEAST NEBRASKA AND IOWA...

CITY           SKY/WX    TMP DP  RH WIND       PRES   REMARKS
TOPEKA         CLEAR     89  74  60 S12       29.81R HX  98
MANHATTAN      CLEAR     94  67  41 S12       29.78R HX  97
EMPORIA        CLEAR     86  69  56 S15       29.84R HX  90
CHANUTE        CLEAR     87  72  60 S14       29.88R HX  93
WICHITA        CLEAR     89  68  49 S14       29.83R HX  93
OMAHA          CLOUDY    89  75  63 N3        29.71S HX  99
LINCOLN        CLEAR     88  73  61 S8        29.74R HX  95
LAMONI         CLEAR     86  77  74 S13       29.80R HX  97
DES MOINES     PTCLDY    88  74  63 S8        29.73R HX  96

$$




USA.gov is the U.S. government's official web portal to all federal, state and local government web resources and services.